CW8809 Weather Reports


Display with metric or nautical units.
time (UTC)temp
F
wind
direction
speed
MPH
gust
MPH
rain 1hr
in
rain 24hr
in
rain mn
in
humidity
%
barometer
mb
20260509100916 46 292 0.0 0.0 0.00 0.00 0.00 82 1024.9
20260509095914 47 292 0.0 0.0 0.00 0.00 0.00 82 1024.8
20260509094912 47 292 0.0 0.0 0.00 0.00 0.00 82 1024.4
20260509093910 47 292 0.0 0.0 0.00 0.00 0.00 81 1024.4
20260509092908 48 292 0.0 0.0 0.00 0.00 0.00 81 1024.4
20260509091834 48 292 0.0 0.0 0.00 0.00 0.00 80 1024.4
20260509090832 49 315 0.0 0.0 0.00 0.00 0.00 79 1024.4
20260509085830 49 315 0.0 0.0 0.00 0.00 0.00 79 1024.5
20260509084756 50 315 0.0 0.0 0.00 0.00 0.00 78 1024.2
20260509083753 50 292 0.0 0.0 0.00 0.00 0.00 77 1024.3
20260509082719 51 292 0.0 0.0 0.00 0.00 0.00 76 1024.0
20260509081647 52 247 0.0 0.0 0.00 0.00 0.00 75 1024.0
20260509080645 52 270 0.0 0.0 0.00 0.00 0.00 74 1023.7
20260509075611 52 292 0.0 0.0 0.00 0.00 0.00 74 1023.8
20260509074609 52 315 0.0 0.0 0.00 0.00 0.00 73 1023.8
20260509073607 53 315 0.0 0.0 0.00 0.00 0.00 72 1023.9
20260509072535 54 315 0.0 0.0 0.00 0.00 0.00 70 1023.7
20260509071532 55 292 0.0 0.0 0.00 0.00 0.00 70 1023.7
20260509070530 56 292 0.0 0.0 0.00 0.00 0.00 68 1023.5
20260509065529 56 247 0.0 0.0 0.00 0.00 0.00 67 1023.5
20260509064455 57 292 0.0 0.0 0.00 0.00 0.00 66 1023.6
20260509063452 57 292 0.0 0.0 0.00 0.00 0.00 65 1023.3
20260509062450 57 247 0.0 0.0 0.00 0.00 0.00 65 1023.3
20260509061416 58 292 0.0 0.0 0.00 0.00 0.00 64 1023.7
20260509060414 58 202 0.0 0.0 0.00 0.00 0.00 63 1023.4
20260509055413 58 180 0.0 0.0 0.00 0.00 0.00 63 1023.5
20260509054411 59 315 0.0 0.0 0.00 0.00 0.00 62 1023.5
20260509053409 59 202 0.0 0.0 0.00 0.00 0.00 62 1023.6
20260509052407 60 270 0.0 0.0 0.00 0.00 0.00 62 1023.6
20260509051406 60 337 0.0 0.0 0.00 0.00 0.00 61 1023.6
20260509050228 60 157 0.0 0.0 0.00 0.00 0.00 61 1023.3
20260509045226 60 247 0.0 0.0 0.00 0.00 0.00 62 1023.7
20260509044152 60 135 0.0 0.0 0.00 0.00 0.00 61 1023.7
20260509043149 60 112 0.0 0.0 0.00 0.00 0.00 60 1023.8
20260509042146 60 247 0.0 0.0 0.00 0.00 0.00 61 1023.8
20260509041144 60 202 0.0 0.0 0.00 0.00 0.00 62 1023.8
20260509040142 60 225 0.0 0.0 0.00 0.00 0.00 62 1023.9
20260509035139 60 337 0.0 0.0 0.00 0.00 0.00 63 1023.9
20260509034137 60 270 0.0 0.0 0.00 0.00 0.00 62 1023.9
20260509033104 59 315 0.0 0.0 0.00 0.00 0.00 62 1023.9
20260509032101 59 292 0.0 0.0 0.00 0.00 0.00 62 1024.2
20260509031059 58 180 0.0 0.0 0.00 0.00 0.00 65 1024.2
20260509030058 58 247 0.0 0.0 0.00 0.00 0.00 65 1024.2
20260509025056 58 225 0.0 0.0 0.00 0.00 0.00 66 1024.5
20260509024054 57 247 0.0 0.0 0.00 0.00 0.00 65 1024.5
20260509023051 57 337 0.0 0.0 0.00 0.00 0.00 67 1024.8
20260509022048 56 292 0.0 0.0 0.00 0.00 0.00 70 1024.7
20260509021046 55 225 0.0 0.0 0.00 0.00 0.00 71 1025.0
20260509020043 54 0 0.0 0.0 0.00 0.00 0.00 70 1025.0
20260509015041 54 112 0.0 0.0 0.00 0.00 0.00 71 1024.9
20260509014039 53 202 0.0 0.0 0.00 0.00 0.00 72 1024.9
20260509013004 53 247 0.0 0.0 0.00 0.00 0.00 74 1025.2
20260509012003 52 22 0.0 0.0 0.00 0.00 0.00 75 1025.1
20260509011001 51 112 0.0 0.0 0.00 0.00 0.00 77 1025.1
20260509005959 50 135 0.0 0.0 0.00 0.00 0.00 79 1025.0
20260509004957 48 180 0.0 0.0 0.00 0.00 0.00 81 1024.9
20260509003955 48 180 0.0 0.0 0.00 0.00 0.00 83 1025.2
20260509002953 48 202 0.0 0.0 0.00 0.00 0.00 83 1025.2
20260509001951 48 292 0.0 0.0 0.00 0.00 0.00 84 1025.2
20260509000950 48 180 0.0 0.0 0.00 0.00 0.00 84 1025.2
20260508235843 47 90 0.0 0.0 0.00 0.00 0.00 84 1025.2
20260508234841 46 90 0.0 0.0 0.00 0.00 0.00 83 1025.1
20260508233838 46 67 0.0 0.0 0.00 0.00 0.00 83 1025.1
20260508232805 45 90 0.0 0.0 0.00 0.00 0.00 82 1025.0
20260508231803 45 90 0.0 0.0 0.00 0.00 0.00 82 1025.0
20260508230730 44 112 0.0 0.0 0.00 0.00 0.00 82 1024.9
20260508225656 43 67 0.0 0.0 0.00 0.00 0.00 82 1024.9
20260508224622 43 67 0.0 0.0 0.00 0.00 0.00 82 1024.5
20260508223621 42 67 0.0 0.0 0.00 0.00 0.00 82 1024.4
20260508222619 41 67 0.0 0.0 0.00 0.00 0.00 82 1024.3
20260508221545 41 67 0.0 0.0 0.00 0.00 0.00 83 1024.3
20260508220511 40 67 0.0 0.0 0.00 0.00 0.00 83 1024.2
20260508215509 38 45 0.0 0.0 0.00 0.00 0.00 83 1023.7
20260508214507 38 45 0.0 0.0 0.00 0.00 0.00 84 1023.7
20260508213505 37 67 0.0 0.0 0.00 0.00 0.00 84 1023.6
20260508212503 37 67 0.0 0.0 0.00 0.00 0.00 85 1023.6
20260508211501 37 337 0.0 0.0 0.00 0.00 0.00 85 1023.2
20260508210356 37 315 0.0 0.0 0.00 0.00 0.00 85 1023.2
20260508205354 37 315 0.0 0.0 0.00 0.00 0.00 85 1022.9
20260508204320 37 315 0.0 0.0 0.00 0.00 0.00 84 1022.6
20260508203318 37 315 0.0 0.0 0.00 0.00 0.00 84 1022.6
20260508202316 37 315 0.0 0.0 0.00 0.00 0.00 84 1022.3
20260508201314 37 315 0.0 0.0 0.00 0.00 0.00 84 1022.3
20260508200312 37 315 0.0 0.0 0.00 0.00 0.00 84 1022.3
20260508195310 38 315 0.0 0.0 0.00 0.00 0.00 84 1022.0
20260508194238 38 315 0.0 0.0 0.00 0.00 0.00 84 1022.0
20260508193236 38 315 0.0 0.0 0.00 0.00 0.00 84 1022.1
20260508192234 39 315 0.0 0.0 0.00 0.00 0.00 84 1022.2
20260508191231 39 315 0.0 0.0 0.00 0.00 0.00 84 1022.2
20260508190228 39 315 0.0 0.0 0.00 0.00 0.00 84 1021.9
20260508185226 39 315 0.0 0.0 0.00 0.00 0.00 84 1022.0
20260508184224 40 315 0.0 0.0 0.00 0.00 0.00 84 1022.0
20260508183222 40 315 0.0 0.0 0.00 0.00 0.00 84 1022.1
20260508182220 40 315 0.0 0.0 0.00 0.00 0.00 84 1022.1
20260508181218 41 315 0.0 0.0 0.00 0.00 0.00 84 1022.2
20260508180217 41 315 0.0 0.0 0.00 0.00 0.00 84 1021.9
20260508175215 41 315 0.0 0.0 0.00 0.00 0.00 84 1022.3
20260508174212 41 315 0.0 0.0 0.00 0.00 0.00 84 1022.3
20260508173107 41 22 0.0 0.0 0.00 0.00 0.00 84 1022.0
20260508172106 41 22 0.0 0.0 0.00 0.00 0.00 84 1022.4
20260508171103 42 135 0.0 0.0 0.00 0.00 0.00 84 1022.1
20260508170101 42 112 0.0 0.0 0.00 0.00 0.00 84 1022.2
20260508165027 42 0 0.0 0.0 0.00 0.00 0.00 84 1022.5
20260508164026 43 0 0.0 0.0 0.00 0.00 0.00 84 1022.2
20260508163024 43 0 0.0 0.0 0.00 0.00 0.00 84 1022.6
20260508162023 44 45 0.0 0.0 0.00 0.00 0.00 84 1022.3
20260508161022 44 45 0.0 0.0 0.00 0.00 0.00 84 1022.3
20260508160020 45 45 0.0 0.0 0.00 0.00 0.00 83 1022.3
20260508155018 46 45 0.0 0.0 0.00 0.00 0.00 84 1022.4
20260508154017 46 45 0.0 0.0 0.00 0.00 0.00 83 1022.1
20260508153015 46 45 0.0 0.0 0.00 0.00 0.00 83 1022.1
20260508152013 47 45 0.0 0.0 0.00 0.00 0.00 83 1022.1
20260508151011 47 45 0.0 0.0 0.00 0.00 0.00 83 1022.1
20260508150008 47 45 0.0 0.0 0.00 0.00 0.00 83 1022.0
20260508145007 47 45 0.0 0.0 0.00 0.00 0.00 82 1022.0
20260508144005 48 292 0.0 0.0 0.00 0.00 0.00 82 1022.0
20260508142901 48 270 0.0 0.0 0.00 0.00 0.00 82 1022.0
20260508141827 48 292 0.0 0.0 0.00 0.00 0.00 82 1021.7
20260508140824 48 292 0.0 0.0 0.00 0.00 0.00 82 1022.0
20260508135719 48 292 0.0 0.0 0.00 0.00 0.00 82 1022.0
20260508134646 47 292 0.0 0.0 0.00 0.00 0.00 82 1022.0
20260508133644 47 315 0.0 0.0 0.00 0.00 0.00 82 1022.0
20260508132611 48 270 0.0 0.0 0.00 0.00 0.00 82 1021.9
20260508131609 48 315 0.0 0.0 0.00 0.00 0.00 82 1021.9
20260508130607 48 292 0.0 0.0 0.00 0.00 0.00 82 1021.9
20260508125606 48 270 0.0 0.0 0.00 0.00 0.00 82 1021.9
20260508124604 48 315 0.0 0.0 0.00 0.00 0.00 82 1021.8
20260508123602 48 292 0.0 0.0 0.00 0.00 0.00 81 1021.7
20260508122600 48 270 0.0 0.0 0.00 0.00 0.00 81 1021.6
20260508121558 48 292 0.0 0.0 0.00 0.00 0.00 80 1021.7
20260508120556 49 292 0.0 0.0 0.00 0.00 0.00 80 1021.7
20260508115523 49 292 0.0 0.0 0.00 0.00 0.00 80 1021.7
20260508114521 49 225 0.0 0.0 0.00 0.00 0.00 79 1021.7
20260508113520 49 292 0.0 0.0 0.00 0.00 0.00 79 1021.6
20260508112518 49 225 0.0 0.0 0.00 0.00 0.00 78 1021.6
20260508111516 49 247 0.0 0.0 0.00 0.00 0.00 78 1021.6
20260508110513 49 292 0.0 0.0 0.00 0.00 0.00 77 1021.6
20260508105512 49 292 0.0 0.0 0.00 0.00 0.00 78 1021.6
20260508104510 48 315 0.0 0.0 0.00 0.00 0.00 77 1021.6
20260508103508 48 292 0.0 0.0 0.00 0.00 0.00 77 1021.5
20260508102505 48 247 0.0 0.0 0.00 0.00 0.00 77 1021.2
20260508101503 48 247 0.0 0.0 0.00 0.00 0.00 77 1021.1